time_stamp(utc),avg(mph),gust(mph),direction(deg),12m_air_temp(f),sonic_u(cm/s),sonic_v(cm/s),sonic_w(cm/s),pressure,2m_air_temp(f),pyranometer(W/m^2)
"2019-09-22 00:03:57+00",9.2,11.2,,69.6,1551,-3405,1684,1021.59,68.9,0
"2019-09-22 00:08:57+00",9.7,11.7,,69.6,1492,-3272,1625,1021.65,68.9,0
"2019-09-22 00:13:57+00",9.9,10.9,,69.6,1471,-3215,1589,1021.56,68.8,0
"2019-09-22 00:18:57+00",8.9,10.9,,69.5,1223,-2793,1376,1021.6,68.8,0
"2019-09-22 00:23:57+00",9.4,12.4,,69.6,1560,-3422,1734,1021.69,68.8,0
"2019-09-22 00:28:57+00",8.9,10.9,,69.6,1120,-2616,1287,1021.69,68.9,0
"2019-09-22 00:33:57+00",9.2,11.2,,69.6,1369,-3066,1504,1021.74,68.8,0
"2019-09-22 00:38:57+00",10.1,12.1,,69.6,1349,-3074,1501,1021.83,68.8,0
"2019-09-22 00:43:57+00",10.2,11.2,,69.6,1452,-3211,1587,1021.8,68.8,0
"2019-09-22 00:48:57+00",10.2,11.2,,69.6,2041,-4227,2162,1021.72,68.8,0
"2019-09-22 00:53:57+00",9.7,10.7,,69.6,1934,-3986,2024,1021.68,68.8,0
"2019-09-22 00:58:57+00",9.4,10.4,,69.6,1546,-3226,1625,1021.66,68.8,0
"2019-09-22 01:03:57+00",9.8,11.8,,69.5,1895,-4067,2061,1021.75,68.6,0
"2019-09-22 01:08:57+00",9.5,10.5,,69.5,1704,-3712,1880,1021.82,68.5,0
"2019-09-22 01:13:57+00",11.1,12.1,,69.6,16063,0,112,1021.83,68.5,-0.1
"2019-09-22 01:18:57+00",9.9,10.9,,69.5,1892,-4073,2056,1021.84,68.5,0
"2019-09-22 01:23:57+00",9.9,10.9,,69.5,1445,-3284,1636,1021.81,68.4,0
"2019-09-22 01:28:57+00",9.8,10.8,,69.5,-82,-647,180,1021.93,68.4,0
"2019-09-22 01:33:57+00",8.8,9.8,,69.3,-255,-312,3,1021.93,68.3,0
"2019-09-22 01:38:57+00",8.5,9.5,,69.3,-228,-309,-1,1021.98,68.2,0
"2019-09-22 01:43:57+00",8.8,9.8,,69.2,-254,-304,-2,1021.98,68.1,0
"2019-09-22 01:48:57+00",8.7,9.7,,69.2,-255,-297,2,1021.94,68,0
"2019-09-22 01:53:57+00",8.3,9.3,,69.3,-241,-280,8,1021.88,67.9,0
"2019-09-22 01:58:57+00",8.8,9.8,,69.3,-267,-286,7,1021.9,67.8,0
"2019-09-22 02:03:57+00",9.1,10.1,,69.3,-293,-270,7,1021.89,67.8,0
"2019-09-22 02:08:57+00",9.7,10.7,,69.3,-308,-299,2,1021.88,67.8,0
"2019-09-22 02:13:57+00",9.4,10.4,,69.4,-290,-311,8,1021.89,67.8,0
"2019-09-22 02:18:57+00",10.2,11.2,,69.4,-328,-315,6,1021.84,67.8,0
"2019-09-22 02:23:57+00",9.1,11.1,,69.4,-281,-302,0,1021.8,67.9,0
"2019-09-22 02:28:57+00",9.2,11.2,,69.3,-281,-309,0,1021.86,67.8,0
"2019-09-22 02:33:57+00",9.4,10.4,,69.4,-284,-307,-8,1021.8,67.7,0
"2019-09-22 02:38:57+00",9.7,10.7,,69.4,-301,-317,4,1021.73,67.8,0
"2019-09-22 02:43:57+00",10.0,11.0,,69.4,-312,-320,8,1021.73,67.8,0
"2019-09-22 02:48:57+00",9.6,12.6,,69.4,-308,-296,13,1021.74,67.9,0
"2019-09-22 02:53:57+00",10.9,13.9,,69.6,-351,-327,2,1021.78,68,0
"2019-09-22 02:58:57+00",12.0,14.0,,69.6,-390,-333,-4,1021.75,68.1,0
"2019-09-22 03:03:57+00",12.2,15.2,,69.7,-405,-340,0,1021.81,68.1,0
"2019-09-22 03:08:57+00",11.7,13.7,,69.8,-404,-316,14,1021.74,68.2,0
"2019-09-22 03:13:57+00",11.3,13.3,,69.8,-387,-301,10,1021.77,68.3,0
"2019-09-22 03:18:57+00",11.7,12.7,,69.7,-397,-311,17,1021.8,68.3,0
"2019-09-22 03:23:57+00",11.6,13.6,,69.7,-398,-313,19,1021.83,68.3,0
"2019-09-22 03:28:57+00",11.2,13.2,,69.6,-409,-281,19,1021.81,68.4,0
"2019-09-22 03:33:57+00",11.9,13.9,,69.6,-421,-302,15,1021.82,68.4,0
"2019-09-22 03:38:57+00",12.1,14.1,,69.6,-481,-279,13,1021.85,68.4,0
"2019-09-22 03:43:57+00",10.5,13.5,,69.5,-411,-242,28,1021.9,68.4,0
"2019-09-22 03:48:57+00",10.6,12.6,,69.3,-391,-264,24,1021.9,68.4,0
"2019-09-22 03:53:57+00",10.9,12.9,,69.2,-397,-272,17,1021.85,68.3,0
"2019-09-22 03:58:57+00",10.3,12.3,,69.1,-376,-261,19,1021.88,68.2,0
"2019-09-22 04:03:57+00",10.6,12.6,,69,-378,-269,15,1021.91,68.1,0
"2019-09-22 04:08:57+00",9.2,11.2,,69,-333,-227,7,1021.85,68,0
"2019-09-22 04:13:57+00",9.8,10.8,,69,-359,-238,7,1021.83,68,0
"2019-09-22 04:18:57+00",8.9,10.9,,68.9,-297,-244,12,1021.86,67.9,0
"2019-09-22 04:23:57+00",8.3,10.3,,68.9,-283,-218,13,1021.82,67.8,0
"2019-09-22 04:28:57+00",8.3,9.3,,68.9,-308,-203,10,1021.84,67.7,0
"2019-09-22 04:33:57+00",8.3,9.3,,68.9,-304,-201,10,1021.91,67.7,0
"2019-09-22 04:38:57+00",8.0,9.0,,68.8,-293,-190,11,1021.85,67.7,0
"2019-09-22 04:43:57+00",9.1,11.1,,68.8,-327,-225,16,1021.8,67.6,0
"2019-09-22 04:48:57+00",8.1,9.1,,68.8,-295,-201,14,1021.74,67.6,0
"2019-09-22 04:53:57+00",7.8,8.8,,68.7,-263,-219,12,1021.76,67.5,0
"2019-09-22 04:58:57+00",8.8,9.8,,68.7,-309,-221,17,1021.81,67.5,0
"2019-09-22 05:03:57+00",8.9,9.9,,68.7,-308,-235,15,1021.76,67.5,0
"2019-09-22 05:08:57+00",8.7,11.7,,68.8,-289,-234,1,1021.7,67.6,0
"2019-09-22 05:13:57+00",9.1,10.1,,68.8,-310,-247,19,1021.77,67.6,0
"2019-09-22 05:18:57+00",9.9,11.9,,68.8,-325,-285,2,1021.78,67.6,0
"2019-09-22 05:23:57+00",9.4,10.4,,68.8,-308,-274,7,1021.78,67.7,0
"2019-09-22 05:28:57+00",9.8,10.8,,68.8,-317,-296,7,1021.69,67.7,0
"2019-09-22 05:33:57+00",9.8,10.8,,68.8,-320,-282,4,1021.7,67.7,0
"2019-09-22 05:38:57+00",9.1,10.1,,68.8,-311,-246,11,1021.73,67.7,0
"2019-09-22 05:43:57+00",10.0,12.0,,68.7,-336,-265,3,1021.65,67.6,0
"2019-09-22 05:48:57+00",8.5,10.5,,68.6,-288,-226,12,1021.54,67.6,0
"2019-09-22 05:53:57+00",9.4,11.4,,68.5,-339,-235,10,1021.61,67.5,0
"2019-09-22 05:58:57+00",9.2,10.2,,68.5,-357,-204,16,1021.64,67.4,0
"2019-09-22 06:03:57+00",8.9,9.9,,68.5,-365,-188,18,1021.65,67.4,0
"2019-09-22 06:08:57+00",9.2,11.2,,68.5,-350,-219,18,1021.58,67.3,0
"2019-09-22 06:13:57+00",10.7,12.7,,68.5,-437,-237,17,1021.52,67.3,0
"2019-09-22 06:18:57+00",10.5,12.5,,68.5,-419,-233,16,1021.46,67.2,0
"2019-09-22 06:23:57+00",8.9,10.9,,68.5,-352,-203,17,1021.39,67.1,0
"2019-09-22 06:28:57+00",9.5,11.5,,68.5,-378,-213,38,1021.33,67.1,0
"2019-09-22 06:33:57+00",10.4,12.4,,68.6,-411,-233,16,1021.36,67.2,0
"2019-09-22 06:38:57+00",9.2,11.2,,68.5,-372,-207,26,1021.33,67.2,0
"2019-09-22 06:43:57+00",9.9,10.9,,68.3,-424,-185,16,1021.24,67.1,0
"2019-09-22 06:48:57+00",10.7,11.7,,68.1,-451,-153,17,1021.29,67,0
"2019-09-22 06:53:57+00",9.9,10.9,,67.9,-411,-90,18,1021.28,66.8,0
"2019-09-22 06:58:57+00",9.5,10.5,,67.7,-391,-83,17,1021.31,66.7,0
"2019-09-22 07:03:57+00",8.0,9.0,,67.6,-338,-101,14,1021.27,66.5,0
"2019-09-22 07:08:57+00",9.5,11.5,,67.5,-394,-167,7,1021.28,66.4,0
"2019-09-22 07:13:57+00",9.2,11.2,,67.3,-387,-147,13,1021.25,66.2,0
"2019-09-22 07:18:57+00",8.1,9.1,,67.3,-346,-134,26,1021.23,66.1,0
"2019-09-22 07:23:57+00",7.5,8.5,,67.1,-325,-141,15,1021.3,66,0
"2019-09-22 07:28:57+00",8.1,9.1,,67,-331,-73,20,1021.26,65.9,0
"2019-09-22 07:33:57+00",7.8,8.8,,67,-320,-70,14,1021.27,65.9,0
"2019-09-22 07:38:57+00",8.0,9.0,,66.9,-331,-101,8,1021.28,65.9,0
"2019-09-22 07:43:57+00",7.2,8.2,,66.9,-311,-121,8,1021.2,65.8,0
"2019-09-22 07:48:57+00",6.8,7.8,,66.9,-289,-132,15,1021.15,65.7,0
"2019-09-22 07:53:57+00",5.9,6.9,,66.8,-252,-112,8,1021.19,65.6,0
"2019-09-22 07:58:57+00",6.0,7.0,,66.7,-223,-139,11,1021.18,65.5,0
"2019-09-22 08:03:57+00",6.4,7.4,,66.8,-239,-144,14,1021.19,65.3,0
"2019-09-22 08:08:57+00",6.0,7.0,,66.8,-251,-114,12,1021.28,65.3,0
"2019-09-22 08:13:57+00",5.6,6.6,,66.5,-247,-109,3,1021.26,65.2,0
"2019-09-22 08:18:57+00",5.3,6.3,,66.6,-233,-94,11,1021.28,65,0
"2019-09-22 08:23:57+00",6.1,6.1,,66.7,-247,-64,13,1021.31,65,0
"2019-09-22 08:28:57+00",4.8,4.8,,66.6,-204,-24,11,1021.28,64.9,0
"2019-09-22 08:33:57+00",5.2,5.2,,66.4,-226,-13,12,1021.21,64.9,0
"2019-09-22 08:38:57+00",6.1,6.1,,66.5,-242,-61,11,1021.15,65,0
"2019-09-22 08:43:57+00",5.0,5.0,,66.5,-197,-58,9,1021.15,64.9,0
"2019-09-22 08:48:57+00",3.7,4.7,,66.5,-157,-79,5,1021.05,64.7,0
"2019-09-22 08:53:57+00",3.0,3.0,,66.4,-135,-61,0,1021.09,64.4,0
"2019-09-22 08:58:57+00",4.2,5.2,,66.3,-142,-108,1,1021.13,64.3,0
"2019-09-22 09:03:57+00",5.3,5.3,,66.4,-170,-143,5,1021.14,64.2,0
"2019-09-22 09:08:57+00",5.7,5.7,,66.7,-195,-140,10,1021.19,64.3,0
"2019-09-22 09:13:57+00",5.2,6.2,,66.7,-181,-125,6,1021.22,64.2,0
"2019-09-22 09:18:57+00",5.4,6.4,,66.7,-188,-130,5,1021.28,64.3,0
"2019-09-22 09:23:57+00",5.5,6.5,,66.7,-199,-129,6,1021.34,64.4,0
"2019-09-22 09:28:57+00",5.9,6.9,,66.8,-213,-135,12,1021.29,64.4,0
"2019-09-22 09:33:57+00",5.0,6.0,,66.9,-176,-120,6,1021.24,64.4,0
"2019-09-22 09:38:57+00",5.5,6.5,,66.9,-192,-135,9,1021.2,64.4,0
"2019-09-22 09:43:57+00",5.6,6.6,,67,-178,-163,0,1021.11,64.3,0
"2019-09-22 09:48:57+00",6.3,7.3,,67,-202,-168,3,1021.23,64.3,0
"2019-09-22 09:53:57+00",6.3,6.3,,67,-193,-170,2,1021.17,64.3,0
"2019-09-22 09:58:57+00",5.8,5.8,,67,-177,-157,0,1021.22,64.2,0
"2019-09-22 10:03:57+00",5.6,6.6,,67.1,-185,-141,8,1021.24,64.1,0
"2019-09-22 10:08:57+00",5.4,5.4,,67.1,-166,-142,7,1021.34,64.1,0
"2019-09-22 10:13:57+00",4.6,5.6,,67.1,-155,-113,7,1021.24,64.1,0
"2019-09-22 10:18:57+00",4.7,4.7,,67,-144,-124,3,1021.21,64.2,0
"2019-09-22 10:23:57+00",4.2,5.2,,67,-138,-139,0,1021.2,64.4,0
"2019-09-22 10:28:57+00",4.2,5.2,,67.1,-108,-156,-2,1021.09,64.6,0
"2019-09-22 10:33:57+00",4.7,4.7,,67.1,-95,-173,-2,1021.08,64.9,0
"2019-09-22 10:38:57+00",3.3,4.3,,67.1,-38,-137,3,1021.13,65,0
"2019-09-22 10:43:57+00",3.9,3.9,,67.1,-66,-152,-1,1021.16,65.2,0
"2019-09-22 10:48:57+00",3.2,3.2,,67.1,-35,-129,-2,1021.11,65.4,0
"2019-09-22 10:53:57+00",3.4,3.4,,67,-49,-135,-2,1021.11,65.3,0
"2019-09-22 10:58:57+00",4.0,4.0,,67.1,-42,-163,-4,1021.05,65.5,0
"2019-09-22 11:03:57+00",4.7,4.7,,67.1,-63,-184,-2,1021.16,65.6,0
"2019-09-22 11:08:57+00",4.6,5.6,,67.1,-108,-169,1,1021.21,65.4,0
"2019-09-22 11:13:57+00",4.2,5.2,,67.1,-108,-137,2,1021.22,65.3,0
"2019-09-22 11:18:57+00",3.9,3.9,,67.3,-84,-142,2,1021.15,65.3,22.2
"2019-09-22 11:23:57+00",3.9,3.9,,67.4,-99,-128,4,1021.15,65.4,35.3
"2019-09-22 11:28:57+00",3.9,3.9,,67.5,-111,-131,5,1021.13,65.7,46.7
"2019-09-22 11:33:57+00",3.6,3.6,,67.7,-64,-137,2,1021.22,66.1,58.3
"2019-09-22 11:38:57+00",3.6,3.6,,67.9,-71,-133,4,1021.34,66.4,69.7
"2019-09-22 11:43:57+00",4.4,5.4,,68,-140,-128,2,1021.37,67.1,76.8
"2019-09-22 11:48:57+00",3.7,4.7,,68,-108,-117,0,1021.35,67.8,80.9
"2019-09-22 11:53:57+00",3.5,4.5,,68.2,-97,-119,-4,1021.32,68.1,88
"2019-09-22 11:58:57+00",3.8,4.8,,68.4,-113,-121,6,1021.38,68.7,95.4
"2019-09-22 12:03:57+00",3.0,4.0,,68.6,653,-1394,743,1021.45,69.3,100.8
"2019-09-22 12:08:57+00",3.7,4.7,,68.9,869,-1788,916,1021.48,69.8,107.6
"2019-09-22 12:13:57+00",2.7,3.7,,69.2,887,-1757,937,1021.49,70.5,111.8
"2019-09-22 12:18:57+00",4.8,5.8,,69.3,3,-386,122,1021.54,71.1,118.3
"2019-09-22 12:23:57+00",4.2,5.2,,69.5,-107,-150,3,1021.64,71.7,125.3
"2019-09-22 12:28:57+00",5.0,6.0,,69.5,-156,-149,-2,1021.79,72.4,132.1
"2019-09-22 12:33:57+00",4.1,5.1,,69.7,-106,-141,5,1021.76,72.8,141.4
"2019-09-22 12:38:57+00",4.2,5.2,,70,-70,-160,-4,1021.74,73,150.8
"2019-09-22 12:43:57+00",4.5,5.5,,70.4,-82,-172,8,1021.71,72.9,161
"2019-09-22 12:48:57+00",5.9,6.9,,70.4,-148,-215,-7,1021.75,73.3,170
"2019-09-22 12:53:57+00",5.1,6.1,,70.7,-121,-189,-7,1021.69,73.6,179.4
"2019-09-22 12:58:57+00",5.1,6.1,,71,-97,-192,4,1021.71,74.1,189.5
"2019-09-22 13:03:57+00",5.4,7.4,,71.3,-132,-203,10,1021.7,74.5,198
"2019-09-22 13:08:57+00",6.0,7.0,,71.3,-164,-206,-6,1021.73,75.1,205.7
"2019-09-22 13:13:57+00",5.2,6.2,,71.6,-143,-173,8,1021.66,75.6,212.8
"2019-09-22 13:18:57+00",4.8,5.8,,71.6,-147,-154,15,1021.6,76.2,217.6
"2019-09-22 13:23:57+00",5.6,6.6,,71.9,-158,-187,-10,1021.63,76.3,229.7
"2019-09-22 13:28:57+00",5.9,7.9,,72.1,-181,-181,-2,1021.65,76.1,236.2
"2019-09-22 13:33:57+00",5.5,7.5,,72.2,-180,-145,1,1021.71,76.7,241.1
"2019-09-22 13:38:57+00",5.3,6.3,,72.3,-183,-146,25,1021.73,77.1,251.6
"2019-09-22 13:43:57+00",5.9,6.9,,72.6,-197,-169,18,1021.84,77.6,260.1
"2019-09-22 13:48:57+00",7.6,8.6,,72.7,-273,-189,22,1021.82,78.1,270.3
"2019-09-22 13:53:57+00",8.8,9.8,,72.8,-284,-242,1,1021.82,78.5,277.2
"2019-09-22 13:58:57+00",7.4,8.4,,73.1,-235,-234,28,1021.82,78.9,280.9
"2019-09-22 14:03:57+00",7.6,8.6,,73.4,-247,-236,12,1021.83,78.9,295.3
"2019-09-22 14:08:57+00",7.7,8.7,,73.5,-250,-219,1,1021.79,79.2,302.7
"2019-09-22 14:13:57+00",6.4,7.4,,73.8,-203,-195,10,1021.73,79.4,309
"2019-09-22 14:18:57+00",4.4,7.4,,74.5,-54,-217,64,1021.75,79.2,312.9
"2019-09-22 14:23:57+00",8.6,10.6,,74.5,2082,-3865,1969,1021.67,78,316.3
"2019-09-22 14:28:57+00",9.0,11.0,,74,2158,-4093,2007,1021.64,76.7,324.9
"2019-09-22 14:33:57+00",7.7,9.7,,74,2119,-3923,1978,1021.66,76.1,331.8
"2019-09-22 14:38:57+00",8.0,11.0,,74.1,1497,-2899,1445,1021.68,76,340.9
"2019-09-22 14:43:57+00",6.8,9.8,,74.4,1306,-2536,1264,1021.63,76.3,346.7
"2019-09-22 14:48:57+00",9.8,10.8,,74.4,1949,-3744,1823,1021.62,76.2,353.3
"2019-09-22 14:53:57+00",9.1,12.1,,74.3,403,-1056,365,1021.62,76.1,359.6
"2019-09-22 14:58:57+00",8.6,11.6,,74.3,67,-447,61,1021.63,76,365
"2019-09-22 15:03:57+00",8.4,10.4,,74.2,26,-369,0,1021.67,75.9,371.6
"2019-09-22 15:08:57+00",11.1,13.1,,74.1,114,-598,43,1021.54,75.9,378
"2019-09-22 15:13:57+00",10.7,12.7,,74.1,118,-547,25,1021.41,75.9,384.2
"2019-09-22 15:18:57+00",9.7,12.7,,74.3,64,-438,5,1021.37,76,389.3
"2019-09-22 15:23:57+00",12.5,13.5,,73.8,172,-603,60,1021.42,76,395.5
"2019-09-22 15:28:57+00",11.6,13.6,,73.5,83,-480,-2,1021.29,76,399.6
"2019-09-22 15:33:57+00",10.4,13.4,,73.6,52,-450,-3,1021.2,75.8,403.1
"2019-09-22 15:38:57+00",9.1,12.1,,73.8,46,-386,1,1021.24,75.8,404.7
"2019-09-22 15:43:57+00",12.5,14.5,,73.7,72,-535,-31,1021.11,75.6,410.4
"2019-09-22 15:48:57+00",9.3,12.3,,73.8,37,-389,10,1021.18,75.7,410.2
"2019-09-22 15:53:57+00",9.9,11.9,,74.3,30,-422,-12,1021.16,76.2,415.2
"2019-09-22 15:58:57+00",11.0,13.0,,74.3,48,-469,-26,1021.1,76.2,415.7
"2019-09-22 16:03:57+00",9.3,12.3,,74.3,-2,-387,-34,1021.02,76.2,416.7
"2019-09-22 16:08:57+00",9.4,11.4,,74.6,3,-387,-21,1021.01,76.4,417.2
"2019-09-22 16:13:57+00",8.4,11.4,,74.9,-6,-356,-16,1021.03,76.8,418.8
"2019-09-22 16:18:57+00",8.6,11.6,,75,20,-366,-1,1020.98,77,374.1
"2019-09-22 16:23:57+00",9.2,11.2,,74.8,64,-392,-8,1020.89,76.9,422.2
"2019-09-22 16:28:57+00",8.5,11.5,,75.1,17,-342,22,1020.78,77.1,422.6
"2019-09-22 16:33:57+00",10.3,12.3,,75,12,-430,-19,1020.79,76.9,423.4
"2019-09-22 16:38:57+00",7.7,9.7,,75.4,-3,-314,-9,1020.77,77.3,425.2
"2019-09-22 16:43:57+00",11.2,13.2,,75.4,45,-476,-27,1020.77,77.6,423.7
"2019-09-22 16:48:57+00",8.1,11.1,,75.7,-12,-331,6,1020.8,77.6,421.7
"2019-09-22 16:53:57+00",9.3,11.3,,76,254,-706,193,1020.69,77.9,422
"2019-09-22 16:58:57+00",10.2,12.2,,75.4,103,-482,24,1020.65,77.2,419.2
"2019-09-22 17:03:57+00",9.9,12.9,,75.4,110,-545,68,1020.66,77.3,420.2
"2019-09-22 17:08:57+00",11.5,13.5,,75.2,214,-744,127,1020.58,77.4,417.6
"2019-09-22 17:13:57+00",11.9,13.9,,74.9,61,-496,-21,1020.51,76.9,414.6
"2019-09-22 17:18:57+00",10.6,12.6,,74.8,52,-442,-17,1020.48,76.8,416.5
"2019-09-22 17:23:57+00",9.2,11.2,,75,34,-396,1,1020.34,77.2,415.3
"2019-09-22 17:28:57+00",8.8,11.8,,75.3,48,-412,4,1020.29,77.5,405.1
"2019-09-22 17:33:57+00",9.3,12.3,,75.2,41,-442,14,1020.24,77.1,426
"2019-09-22 17:38:57+00",9.8,13.8,,75.3,473,-1130,388,1020.25,77.4,308.1
"2019-09-22 17:43:57+00",11.9,14.9,,75.1,79,-571,8,1020.19,77.2,240.5
"2019-09-22 17:48:57+00",11.8,13.8,,74.9,58,-499,-23,1020.18,76.7,377.2
"2019-09-22 17:53:57+00",10.4,13.4,,74.9,56,-434,-9,1020.15,76.9,390.3
"2019-09-22 17:58:57+00",11.2,14.2,,74.7,42,-465,-25,1020.07,76.7,391.5
"2019-09-22 18:03:57+00",11.2,13.2,,74.9,79,-486,-3,1019.97,76.8,388
"2019-09-22 18:08:57+00",12.1,14.1,,74.9,66,-545,-12,1019.96,76.7,379.5
"2019-09-22 18:13:57+00",8.5,13.5,,75.3,-30,-336,13,1020.01,76.9,374.7
"2019-09-22 18:18:57+00",7.5,10.5,,75.9,154,-668,238,1019.9,77.3,366.6
"2019-09-22 18:23:57+00",11.9,14.9,,76.1,-167,-478,2,1019.76,78.1,361.6
"2019-09-22 18:28:57+00",11.7,14.7,,76.2,-128,-479,-11,1019.73,78.1,350.4
"2019-09-22 18:33:57+00",11.5,13.5,,76.2,-127,-473,-18,1019.69,78.2,346.4
"2019-09-22 18:38:57+00",11.7,15.7,,76.5,-94,-483,-18,1019.66,78.3,337.2
"2019-09-22 18:43:57+00",11.4,14.4,,76.4,-174,-465,6,1019.63,78.2,332.4
"2019-09-22 18:48:57+00",12.1,14.1,,76.3,-116,-500,-7,1019.55,78.1,327.3
"2019-09-22 18:53:57+00",10.7,13.7,,76.3,-123,-404,13,1019.46,78.2,324.8
"2019-09-22 18:58:57+00",10.7,16.7,,76,-128,-431,5,1019.35,77.9,318.1
"2019-09-22 19:03:57+00",13.2,17.2,,75.9,-160,-543,-11,1019.3,77.9,287.6
"2019-09-22 19:08:57+00",13.2,18.2,,76,-170,-539,0,1019.36,77.7,280.4
"2019-09-22 19:13:57+00",8.3,13.3,,76.4,-28,-324,44,1019.17,77.9,273.8
"2019-09-22 19:18:57+00",7.6,11.6,,76.2,-43,-318,3,1019.16,77.6,285.9
"2019-09-22 19:23:57+00",10.2,13.2,,75.6,41,-408,4,1019.03,77.1,281.9
"2019-09-22 19:28:57+00",12.2,14.2,,75,45,-523,-31,1019.05,76.6,279
"2019-09-22 19:33:57+00",10.2,14.2,,75.1,-64,-435,-9,1019.02,76.5,268.4
"2019-09-22 19:38:57+00",9.2,11.2,,75.3,-90,-366,-7,1019.01,76.6,263.8
"2019-09-22 19:43:57+00",10.5,13.5,,75.5,-110,-447,-17,1019,76.9,255.8
"2019-09-22 19:48:57+00",10.4,13.4,,76,-131,-428,13,1018.87,77.3,235.3
"2019-09-22 19:53:57+00",11.7,16.7,,75.8,-128,-493,-6,1018.82,77.4,235.8
"2019-09-22 19:58:57+00",12.5,15.5,,75.6,-112,-510,-8,1018.79,77.1,236.5
"2019-09-22 20:03:57+00",12.9,16.9,,76.1,-184,-525,13,1018.68,77.4,229.3
"2019-09-22 20:08:57+00",13.1,16.1,,76,-171,-537,1,1018.61,77.3,221.4
"2019-09-22 20:13:57+00",9.5,12.5,,76.1,-83,-391,19,1018.63,77.4,212
"2019-09-22 20:18:57+00",9.8,14.8,,76.3,-101,-408,14,1018.58,77.6,191.4
"2019-09-22 20:23:57+00",11.6,14.6,,76,-119,-475,-4,1018.6,77.3,190.7
"2019-09-22 20:28:57+00",8.3,12.3,,76.2,-92,-334,31,1018.63,77.5,185.4
"2019-09-22 20:33:57+00",11.3,14.3,,75.9,-111,-466,17,1018.55,77.4,178.6
"2019-09-22 20:38:57+00",12.0,16.0,,75.6,-138,-492,-2,1018.53,76.9,177.8
"2019-09-22 20:43:57+00",14.3,18.3,,75.7,119,-1007,199,1018.57,76.9,168.6
"2019-09-22 20:48:57+00",10.2,13.2,,75.7,792,-1939,823,1018.52,76.8,162.7
"2019-09-22 22:13:57+00",11.7,16.7,,74.3,1921,-3967,2013,1017.98,74.7,4.2
"2019-09-22 22:18:57+00",12.5,14.5,,74.1,2051,-4143,2027,1017.96,74.4,1.1
"2019-09-22 22:23:57+00",14.4,16.4,,73.9,1796,-3940,2017,1017.92,74.1,0
"2019-09-22 22:28:57+00",12.0,14.0,,73.7,-26,-743,156,1017.88,73.7,0
"2019-09-22 22:33:57+00",13.2,17.2,,73.6,-214,-529,-7,1017.82,73.5,0
"2019-09-22 22:38:57+00",12.5,15.5,,73.4,-204,-499,-8,1017.79,73.3,0
"2019-09-22 22:43:57+00",14.2,17.2,,73.4,-239,-569,-9,1017.77,73.2,0
"2019-09-22 22:48:57+00",13.5,14.5,,73.4,-239,-532,-1,1017.85,73,0
"2019-09-22 22:53:57+00",11.9,14.9,,73.3,-218,-464,7,1017.82,72.9,0
"2019-09-22 22:58:57+00",13.8,15.8,,73.3,-241,-552,3,1017.76,72.8,0
"2019-09-22 23:03:57+00",12.1,15.1,,73.1,-215,-475,-6,1017.76,72.7,0
"2019-09-22 23:08:57+00",12.6,14.6,,73.2,-271,-483,0,1017.85,72.7,0
"2019-09-22 23:13:57+00",13.6,15.6,,73.1,-266,-525,-5,1017.82,72.6,0
"2019-09-22 23:18:57+00",13.5,15.5,,73.1,-272,-520,-3,1017.76,72.5,0
"2019-09-22 23:23:57+00",13.4,16.4,,73.1,-279,-498,10,1017.8,72.5,0
"2019-09-22 23:28:57+00",12.5,14.5,,73.1,-269,-475,0,1017.83,72.5,0
"2019-09-22 23:33:57+00",12.8,14.8,,73,-274,-486,-6,1017.79,72.4,0
"2019-09-22 23:38:57+00",12.2,14.2,,73,-250,-470,-1,1017.82,72.4,0
"2019-09-22 23:43:57+00",10.9,12.9,,72.9,-226,-419,-1,1017.88,72.4,0
"2019-09-22 23:48:57+00",10.5,13.5,,72.9,-226,-398,-4,1017.89,72.3,0
"2019-09-22 23:53:57+00",13.2,15.2,,73.2,-304,-495,-6,1017.82,72.3,0
"2019-09-22 23:58:57+00",11.6,14.6,,73.2,-209,-448,-9,1017.85,72.4,0
